This is the latest recevied weather packets stored in our database for station/object KB3VSP. If no packets are shown the sender has not sent any weather packets the latest 10 day(s).
| Time | Temp. | Humidity | Pressure | Rain* | Wind** | Luminosity | Snow |
|---|---|---|---|---|---|---|---|
| 1777158723 | 10.56° C | 92% | 1012.9 hPa | 0 mm | - | 16 W/m² | - |
| 1777158418 | 10.56° C | 91% | 1012.7 hPa | 0 mm | - | 22 W/m² | - |
| 1777158113 | 11.11° C | 91% | 1012.6 hPa | 0 mm | - | 24 W/m² | - |
| 1777157809 | 11.11° C | 91% | 1012.5 hPa | 0 mm | - | 34 W/m² | - |
| 1777157505 | 11.11° C | 91% | 1012.5 hPa | 0 mm | - | 34 W/m² | - |
| 1777157202 | 11.11° C | 91% | 1012.4 hPa | 0 mm | - | 30 W/m² | - |
| 1777156901 | 11.11° C | 91% | 1012.4 hPa | 0 mm | - | 38 W/m² | - |
| 1777156596 | 11.11° C | 91% | 1012.6 hPa | 0 mm | - | 36 W/m² | - |
| 1777156293 | 11.11° C | 91% | 1012.4 hPa | 0 mm | - | 42 W/m² | - |
| 1777155989 | 11.11° C | 91% | 1012.4 hPa | 0 mm | - | 38 W/m² | - |
| 1777155686 | 11.11° C | 92% | 1012.2 hPa | 0 mm | - | 62 W/m² | - |
| 1777155377 | 11.11° C | 92% | 1012.3 hPa | 0 mm | - | 53 W/m² | - |
| 1777155073 | 11.11° C | 92% | 1011.8 hPa | 0 mm | - | 46 W/m² | - |
| 1777154771 | 11.11° C | 92% | 1012.5 hPa | 0 mm | - | 52 W/m² | - |
| 1777154467 | 11.11° C | 92% | 1012.1 hPa | 0 mm | - | 48 W/m² | - |
| 1777154163 | 11.67° C | 92% | 1012.2 hPa | 0 mm | - | 56 W/m² | - |
| 1777153859 | 11.67° C | 93% | 1011.9 hPa | 0 mm | - | 53 W/m² | - |
| 1777153556 | 11.67° C | 93% | 1012.1 hPa | 0 mm | - | 31 W/m² | - |
| 1777153250 | 11.67° C | 93% | 1012 hPa | 0 mm | - | 31 W/m² | - |
| 1777152948 | 11.67° C | 93% | 1012 hPa | 0 mm | - | 46 W/m² | - |
| 1777152644 | 11.67° C | 93% | 1011.9 hPa | 0 mm | - | 39 W/m² | - |
| 1777152342 | 11.67° C | 93% | 1011.9 hPa | 0 mm | - | 54 W/m² | - |
| 1777152036 | 11.67° C | 93% | 1011.8 hPa | 0 mm | - | 36 W/m² | - |
| 1777151732 | 11.67° C | 93% | 1011.7 hPa | 0 mm | - | 51 W/m² | - |
| 1777151429 | 11.67° C | 93% | 1011.6 hPa | 0 mm | - | 40 W/m² | - |
* Rain latest hour (hover to see other rain measurements)
** Current wind speed in m/s (hover to see current wind gust speed)